Theta_e
352 354 355 356 356 356 357 358 359 359 357 356 357 357 357 356 355 357 358 356 358 359 358 358 357 358 359 359 358 357 356 354 355 355 353 352 349 349 351 351 350 349
353 354 355 356 357 356 356 358 358 360 359 357 357 357 357 356 356 356 356 356 358 359 358 359 359 359 360 360 359 358 356 355 356 356 354 352 349 348 350 352 350 349
354 355 355 355 357 357 357 359 358 358 359 359 358 358 357 357 357 356 355 355 357 359 359 360 360 360 361 362 361 359 358 357 356 356 356 353 351 349 351 352 351 350
355 356 356 354 355 356 357 358 358 357 358 359 358 358 358 358 357 356 355 355 356 359 360 361 361 360 360 361 361 359 359 359 355 355 357 354 351 351 351 351 351 351
356 357 357 356 355 356 355 356 356 355 356 356 356 357 357 357 356 357 356 356 356 358 359 361 360 359 358 359 361 359 359 360 355 354 358 356 353 353 352 351 351 351
357 357 357 357 356 356 355 355 354 354 354 354 355 355 355 355 356 357 357 358 358 357 358 359 358 359 359 359 362 361 359 360 357 355 358 358 355 355 353 353 352 351
355 356 356 356 357 356 355 355 353 353 353 353 353 354 354 355 356 356 356 357 358 358 358 358 357 359 361 360 361 362 360 361 360 357 358 358 358 357 355 354 355 353
356 355 355 355 356 355 355 355 354 353 353 352 353 352 352 353 355 356 355 356 357 357 358 358 358 358 358 358 360 360 359 360 361 359 358 358 359 359 358 357 358 356
358 357 356 356 355 355 354 354 354 353 352 352 352 351 351 352 353 354 355 355 356 357 357 357 358 358 356 357 359 359 358 359 360 360 358 358 359 360 359 358 358 358
359 359 359 358 356 354 353 352 352 353 352 351 351 351 351 351 352 352 354 355 356 357 357 355 356 357 356 356 357 358 357 357 359 360 358 357 358 360 360 359 358 358
357 359 359 359 358 356 353 352 350 350 351 351 351 350 350 350 351 351 352 354 355 356 356 355 354 355 355 355 355 356 357 357 357 359 359 358 357 358 360 360 359 358
356 357 357 357 357 356 354 352 351 350 350 350 350 349 350 350 350 350 351 353 353 354 355 354 354 354 355 355 355 355 357 357 357 357 358 359 359 358 358 359 360 359
356 356 356 355 354 354 353 351 352 351 349 349 350 349 349 349 349 349 350 351 353 353 353 353 353 353 354 354 355 356 356 357 357 357 357 358 359 359 358 358 358 358
354 354 355 354 354 353 353 351 351 352 351 349 349 350 350 348 348 349 349 350 351 352 352 352 352 353 353 353 354 356 357 357 357 357 357 358 358 358 358 358 358 358
352 352 352 353 354 354 353 353 351 351 352 350 348 349 350 348 347 347 348 349 350 351 352 351 351 352 352 352 353 353 356 357 357 357 357 357 358 358 357 357 357 357
352 351 351 351 353 353 353 353 352 352 352 350 348 347 347 348 348 347 348 348 349 350 351 352 352 351 352 352 353 353 353 355 357 357 357 356 357 357 356 355 355 354
352 351 351 351 351 352 353 353 352 353 352 351 349 347 345 345 346 347 348 349 349 349 349 351 351 351 351 352 353 354 353 354 355 356 356 356 355 354 354 354 353 352
350 350 351 351 351 352 353 353 353 353 353 350 349 348 347 345 344 344 346 348 350 350 349 350 350 350 350 351 352 354 354 354 354 354 355 356 355 354 352 352 351 351
348 348 348 349 351 352 352 353 353 354 354 353 352 351 351 348 346 344 343 346 350 351 350 349 349 349 349 349 350 352 353 353 354 354 354 354 354 354 353 351 350 349
342 345 345 345 346 349 350 351 353 353 353 353 354 353 352 351 349 347 345 346 350 353 354 353 351 350 350 349 349 350 350 350 352 353 353 352 352 353 353 352 350 349
337 340 343 343 343 344 345 347 349 352 352 352 353 353 353 353 352 350 349 348 349 352 354 355 354 353 352 350 349 350 350 349 351 352 353 353 352 351 352 352 351 349
340 339 340 340 340 343 345 347 348 349 350 351 352 353 354 354 353 352 351 351 351 351 353 354 355 355 354 353 351 350 349 349 350 352 353 353 352 351 351 351 351 349
342 341 340 338 336 338 343 346 347 349 349 349 351 352 354 355 355 355 354 353 353 353 353 353 354 354 355 354 353 353 351 349 349 350 352 353 353 351 350 350 350 349
338 339 340 340 338 335 337 339 339 342 343 341 342 346 350 353 355 355 355 356 356 356 355 354 354 354 354 354 354 354 354 353 351 350 349 351 352 351 351 349 348 347
334 335 337 341 342 340 339 339 336 336 336 335 334 338 343 348 350 352 353 355 355 356 357 356 355 354 353 353 354 354 354 354 354 352 351 350 350 351 352 351 350 348
333 333 333 337 341 342 343 342 340 338 338 338 338 338 340 343 345 346 348 350 352 355 356 357 357 356 354 353 353 353 353 353 353 354 353 352 351 350 352 352 352 351
Wind_Speed
19 17 16 16 17 19 18 17 17 16 17 17 16 16 15 14 14 14 14 14 14 13 12 12 12 11 12 13 12 12 13 11 10 11 10 10 11 10 7 3 3 4
20 19 17 15 16 18 19 18 17 16 15 15 16 16 15 14 14 14 14 15 15 14 13 13 13 12 12 13 12 13 14 12 11 11 10 9 10 11 8 5 3 4
21 20 20 18 16 17 18 18 17 16 15 15 15 15 15 15 16 15 14 14 15 15 14 13 13 13 13 12 12 13 13 14 14 12 11 10 10 11 10 8 6 6
22 21 21 20 19 17 17 17 17 16 16 15 14 14 15 15 15 16 16 14 14 14 14 14 13 13 13 12 12 12 12 12 13 12 11 11 10 10 11 10 8 8
24 22 21 21 20 18 17 17 17 17 16 16 14 14 14 14 14 15 16 16 14 13 14 14 13 12 13 12 12 12 11 10 11 11 10 11 10 10 11 11 9 8
24 23 22 21 20 19 18 18 18 17 17 17 16 15 15 15 16 16 17 16 14 14 15 14 13 12 12 12 12 12 12 10 10 11 10 11 11 10 10 10 10 9
25 24 23 22 20 20 19 19 18 18 17 17 17 17 16 15 17 18 18 18 16 16 16 14 14 13 13 13 13 13 13 11 10 11 12 12 12 11 11 11 10 11
24 24 24 23 22 20 19 19 19 18 17 16 17 17 17 16 16 18 18 18 18 17 17 16 16 15 13 14 14 14 14 13 12 12 13 13 14 13 13 13 11 11
23 24 24 24 23 22 20 18 19 19 18 18 17 18 19 18 18 18 17 17 17 17 17 17 18 17 15 14 15 15 14 14 13 13 13 14 15 14 14 14 12 10
19 21 24 24 23 23 22 19 18 18 19 20 19 18 19 20 20 20 19 18 18 17 18 18 18 19 18 17 16 15 15 15 14 14 15 15 15 15 13 14 15 12
13 14 17 21 21 20 20 20 19 19 19 20 21 20 19 19 21 22 21 20 20 19 19 19 18 19 19 19 18 16 15 15 15 15 15 15 15 16 15 14 15 15
11 10 11 14 15 14 13 12 12 16 19 21 23 22 20 20 21 23 23 22 22 21 21 20 19 18 19 19 19 18 17 16 16 15 15 16 16 15 14 14 15 15
8 8 7 8 10 9 9 7 4 5 9 15 22 26 24 22 21 23 24 23 23 23 23 22 21 20 19 20 19 18 19 19 19 18 17 17 17 16 15 15 15 16
3 3 3 6 8 8 9 10 7 4 4 6 12 22 24 24 24 23 25 26 25 24 25 24 23 23 22 22 22 20 20 20 21 20 20 19 19 19 18 17 17 17
4 2 1 3 7 9 11 12 11 9 5 5 5 12 17 19 22 22 24 28 28 25 26 26 26 26 25 25 25 25 24 23 22 22 22 21 20 20 20 20 19 19
12 8 5 2 2 5 8 11 13 14 12 7 5 8 12 13 16 17 17 24 30 29 27 28 28 27 27 26 27 27 27 26 25 23 23 23 23 21 21 21 21 20
17 15 12 8 5 2 1 4 10 14 17 15 10 10 13 13 14 16 15 17 26 32 31 29 30 30 28 28 28 28 29 29 29 27 25 24 25 24 23 23 22 22
16 17 17 16 12 8 5 3 2 7 13 18 17 15 16 16 16 18 19 16 18 27 34 33 32 31 30 29 29 28 29 30 31 30 28 27 26 26 26 25 24 23
14 15 16 16 15 13 10 7 5 4 6 9 12 13 15 18 19 21 23 21 16 17 25 30 33 33 31 30 29 29 30 31 31 32 31 30 28 27 28 28 27 27
13 14 14 12 11 10 10 10 8 6 6 6 6 8 12 17 20 21 23 24 20 14 13 17 23 28 31 32 31 30 30 32 33 33 33 33 31 30 29 29 29 29
14 14 13 10 8 6 6 7 9 9 8 7 6 6 9 12 15 18 21 22 21 18 15 13 14 18 24 29 33 33 33 33 35 35 33 33 33 32 31 30 30 30
14 15 15 12 9 7 7 7 7 9 9 8 7 6 7 8 10 13 17 20 20 19 19 19 17 16 17 20 25 29 31 33 36 37 35 33 33 34 33 32 31 31
13 14 14 13 13 11 10 10 9 9 9 8 8 8 7 7 7 9 12 15 17 18 19 21 22 21 19 18 19 21 23 26 31 35 37 36 35 35 35 35 33 33
13 14 12 11 13 13 12 11 11 10 9 9 11 12 10 9 8 9 9 10 12 14 16 19 22 23 23 22 22 21 21 22 24 28 33 36 37 36 36 36 36 35
13 14 13 8 8 11 13 13 14 14 13 12 14 15 13 11 11 11 11 10 10 12 14 17 20 22 23 24 24 24 23 23 23 25 28 32 35 36 36 36 37 38
12 14 14 10 6 7 9 10 12 13 13 13 13 14 13 12 12 12 13 14 13 13 14 15 17 20 22 23 24 25 25 25 25 25 27 29 30 32 33 34 35 36
Wind_Direction
193 194 193 189 189 190 189 190 193 196 199 198 200 206 207 208 203 197 202 196 188 198 205 199 198 199 200 199 201 202 200 202 201 202 206 205 205 204 203 233 271 266
194 197 198 194 192 193 193 192 195 201 205 205 206 210 210 212 210 205 208 202 195 198 201 203 201 198 200 203 203 198 195 197 198 205 215 214 209 207 203 213 237 258
197 199 200 199 195 192 193 195 198 202 206 207 209 211 212 214 213 211 215 209 200 201 202 205 207 201 199 204 207 202 198 201 199 204 219 223 217 210 207 216 231 240
200 202 202 203 201 197 198 199 199 201 205 207 209 212 210 209 210 212 216 211 204 205 207 208 210 206 201 203 210 208 206 208 202 201 218 223 219 214 211 222 235 233
202 202 203 205 205 203 204 205 203 203 205 207 207 209 208 205 206 210 211 207 204 207 212 214 214 212 207 203 210 212 210 214 206 202 217 222 215 216 216 224 236 237
204 203 203 204 205 206 207 208 210 209 209 209 208 207 210 212 209 206 206 205 204 208 215 219 215 213 213 208 212 216 211 217 214 204 214 216 213 221 221 221 232 239
206 206 205 204 205 208 211 210 212 213 212 212 213 209 209 214 213 206 205 207 208 211 216 221 216 214 218 214 214 217 213 218 222 215 218 216 214 223 221 224 238 238
208 207 208 208 206 209 213 212 210 213 214 213 215 214 209 212 214 209 207 210 212 214 216 220 222 222 223 218 216 219 215 216 224 225 224 219 218 223 221 226 243 243
207 206 208 209 208 210 214 215 213 212 214 214 217 217 211 211 214 211 212 215 215 216 218 221 225 226 224 220 219 224 222 217 223 231 228 221 221 225 224 226 237 245
201 203 206 208 209 211 212 216 218 215 216 217 219 221 215 213 215 215 215 218 218 220 222 225 228 227 224 222 223 229 231 223 222 232 234 229 226 228 228 229 233 238
195 196 201 202 205 210 211 214 219 220 220 219 218 223 222 217 216 217 216 216 218 222 225 227 231 229 224 223 225 230 234 231 228 233 237 235 233 232 231 231 232 235
202 203 198 193 196 204 210 216 222 225 227 224 219 220 224 224 220 217 217 218 219 221 225 228 231 231 227 224 225 227 231 235 235 235 238 238 237 236 233 233 234 235
214 225 218 200 194 197 207 220 237 243 246 237 222 216 218 224 225 220 218 220 221 221 223 227 228 230 231 228 226 226 230 234 236 235 237 239 238 237 237 237 238 238
214 253 251 222 212 207 210 218 227 254 312 294 230 214 213 218 223 223 220 219 222 223 224 225 227 228 231 233 231 230 231 233 235 235 236 239 237 237 238 239 240 240
52 48 357 219 214 216 217 217 220 225 255 314 265 216 212 218 223 226 224 219 219 223 224 224 225 227 230 233 234 233 232 234 236 235 234 236 237 237 238 239 240 241
52 57 64 94 197 223 227 226 226 222 221 243 266 230 221 225 231 236 237 225 218 218 222 222 222 226 231 233 235 235 233 232 235 237 236 234 236 238 240 241 241 241
58 58 61 64 63 42 335 241 240 234 225 224 232 236 231 230 236 247 256 243 223 217 218 219 221 225 229 232 235 236 235 233 233 235 236 236 235 236 239 241 242 242
61 63 65 65 63 58 49 35 311 264 244 233 227 228 232 230 232 241 250 256 241 224 218 218 220 224 227 230 233 235 235 235 234 233 234 236 236 235 236 238 240 242
58 64 69 69 69 66 60 47 19 336 293 263 245 239 237 232 228 233 237 243 250 237 223 221 222 224 227 228 230 234 235 235 235 234 233 234 236 237 236 236 236 238
55 59 62 64 67 65 60 54 37 8 346 330 298 265 249 237 230 231 231 233 241 247 236 226 224 225 228 229 229 233 235 235 235 234 234 234 236 238 239 238 238 237
56 59 58 52 48 42 37 44 42 25 6 351 333 292 269 256 241 233 231 233 241 248 248 242 231 225 226 228 231 233 235 236 234 232 233 235 235 236 239 240 242 242
53 57 57 50 42 43 43 41 38 33 22 1 342 321 294 277 257 241 235 235 240 245 248 249 248 242 234 229 229 232 236 238 236 233 232 234 236 237 237 239 242 244
42 42 46 44 37 38 46 46 38 33 29 13 352 335 319 303 284 265 254 249 248 250 252 252 250 251 254 251 243 238 239 242 242 239 236 235 236 238 238 239 240 242
32 28 27 32 33 30 29 29 24 17 11 4 352 337 325 316 303 288 277 271 268 265 264 263 257 252 254 258 259 255 251 249 248 248 244 240 239 239 240 240 241 242
25 23 18 23 36 31 24 18 14 7 355 342 336 330 321 317 313 306 296 287 280 274 271 271 268 262 258 258 259 261 262 261 258 255 252 249 245 243 243 243 243 243
19 16 14 16 19 16 20 22 17 11 1 348 339 328 319 316 318 317 310 300 293 286 280 278 276 272 268 265 263 263 265 269 268 263 258 256 252 248 247 247 247 247